Simultaneous Nadir Overpasses (SNOs) Predictions

Prediction of SNOs between GOES-17 and NOAA-19 Satellite Orbit:

Table of predicted SNOs for the next 14.0 days since TLE Epoch: 9/21/2024
Index Date Time (GOES-17) GOES-17 Lat,Lon NOAA-19 Lat,Lon Distance(km) Time Diff (sec)
1 09/21/2024 04:10:34 0.01,-104.68 0.76,-101.40 373.83 12
2 09/22/2024 16:40:56 0.01,-104.73 0.98,-108.96 483.36 80
3 09/23/2024 16:28:33 0.02,-104.73 0.31,-105.95 139.92 80
4 09/24/2024 16:18:49 0.02,-104.72 -0.36,-102.93 203.52 80
5 09/27/2024 04:38:07 -0.02,-104.67 -0.69,-107.53 327.16 80
6 09/28/2024 04:23:04 -0.01,-104.67 0.02,-104.52 16.31 80
7 09/29/2024 04:10:40 0.00,-104.67 0.73,-101.51 359.91 80
8 09/30/2024 16:42:12 -0.01,-104.72 0.98,-109.09 498.17 80
9 10/01/2024 16:29:49 -0.01,-104.73 0.28,-106.08 154.11 80
10 10/02/2024 16:20:05 -0.01,-104.73 -0.42,-103.07 190.06 80
